CAPE
1 0 1 1 3 2 1 1 1 2 2 1 0 1 0 0 0 0 0 0 0 0 0 0 0 0 0 0 0 0 0 0 0 0 0 32 0 0 0 0 0 0 0 23 80 69 131
0 0 1 1 0 1 0 0 2 1 0 1 0 0 0 0 0 0 0 0 0 0 0 0 0 0 0 0 0 0 0 0 0 0 0 3 0 0 0 0 0 0 0 2 86 44 32
2 0 0 0 0 0 0 0 0 0 1 0 0 0 0 0 0 0 0 0 0 0 0 0 0 0 0 0 0 0 0 0 0 0 0 0 0 0 0 0 0 0 0 0 58 60 6
1 0 1 0 1 0 0 1 0 1 0 0 0 0 0 0 0 0 0 0 0 0 0 0 0 0 0 0 0 0 0 0 0 0 0 0 0 0 0 0 0 0 0 2 53 76 0
1 1 2 1 1 0 0 1 2 0 0 0 0 0 0 0 0 0 0 0 0 0 0 0 0 0 0 0 0 0 0 0 0 0 0 0 0 0 0 0 0 0 0 9 30 11 0
1 1 1 2 0 0 1 0 0 0 0 0 0 0 0 0 0 0 0 0 0 0 0 0 0 0 0 0 0 0 0 0 0 0 0 0 0 0 0 0 0 0 0 3 2 1 0
3 2 2 2 0 0 0 0 0 0 0 0 0 0 0 0 0 0 0 0 0 0 0 0 0 0 0 0 0 0 0 0 0 0 0 0 0 0 0 0 0 0 0 0 0 0 0
2 1 1 1 1 1 1 1 0 0 0 0 0 0 0 0 0 0 0 0 0 0 0 0 0 0 0 0 0 0 0 0 0 0 0 0 0 0 0 0 0 0 0 0 0 0 0
1 2 2 2 2 0 1 0 0 0 0 0 0 0 0 0 0 0 0 0 0 0 0 0 0 0 0 0 0 0 0 0 0 0 0 0 0 0 0 0 0 0 0 0 0 0 0
1 2 1 0 0 0 0 0 0 0 0 0 0 0 0 0 0 0 0 0 0 0 0 0 0 0 0 0 0 0 0 0 0 0 0 0 0 0 0 0 0 0 0 0 0 0 0
4 2 0 1 1 0 0 0 0 0 0 0 0 0 0 0 0 0 0 0 0 0 0 0 0 0 0 0 0 0 0 0 0 0 0 0 0 0 0 0 0 0 0 0 0 0 0
0 0 0 0 2 1 0 1 0 0 0 0 0 0 0 0 0 0 0 0 0 0 0 0 0 0 0 0 0 0 0 0 0 0 0 0 0 0 0 0 0 0 0 0 0 0 0
0 0 0 0 0 0 0 0 0 0 0 0 0 0 0 0 0 0 0 0 0 0 0 0 0 0 0 0 0 0 0 0 0 0 0 0 0 0 0 0 0 0 0 0 0 0 0
0 0 0 0 0 0 0 0 0 0 0 0 0 0 0 0 0 0 0 0 0 0 0 0 0 0 0 0 0 0 0 0 0 0 0 0 0 0 0 0 0 0 0 0 0 0 0
0 0 0 0 0 0 0 0 0 0 0 0 0 0 0 0 0 0 0 0 0 0 0 0 0 0 0 0 0 0 0 0 0 0 0 0 0 0 0 0 0 0 0 0 0 0 0
0 0 0 0 0 0 0 0 0 0 0 0 0 0 0 0 0 0 0 0 0 0 0 0 0 0 0 0 0 0 0 0 0 0 0 0 0 0 0 0 0 0 0 0 0 0 0
0 0 0 0 0 0 0 0 0 0 0 0 0 0 0 0 0 0 0 0 0 0 0 0 0 0 0 0 0 0 0 0 0 0 0 0 0 0 0 0 0 0 0 0 0 0 0
0 0 0 0 0 0 0 0 0 0 0 0 0 0 0 0 0 0 0 0 0 0 0 0 0 0 0 0 0 0 0 0 0 0 0 0 0 0 0 0 0 0 0 0 0 0 0
0 0 0 0 0 0 0 0 0 0 0 0 0 0 0 0 0 0 0 0 0 0 0 0 0 0 0 0 0 0 0 0 0 0 0 0 0 0 0 0 0 0 7 5 0 0 0
0 0 0 0 0 0 0 0 0 0 0 0 0 10 0 0 0 0 0 2 0 0 0 0 0 0 0 0 0 0 0 0 0 0 0 0 0 0 0 0 0 0 0 8 15 3 1
0 0 0 0 0 0 0 0 0 0 0 0 0 3 0 0 0 0 0 0 0 0 0 0 0 0 0 0 0 0 0 0 0 0 0 0 0 0 0 0 0 0 0 0 0 18 5
0 0 0 0 0 0 0 0 0 0 0 0 0 0 0 0 0 0 0 0 0 0 0 0 0 0 0 0 0 0 0 0 0 0 0 0 0 0 0 0 0 0 0 17 35 8 24
0 0 0 0 0 0 0 0 0 0 0 0 0 0 0 0 0 0 0 0 0 0 0 0 0 0 0 0 0 0 0 0 0 0 0 0 0 0 0 0 0 0 0 0 0 0 13
0 0 0 0 0 1 0 0 0 0 0 0 0 0 0 0 0 0 0 0 0 0 0 0 0 0 0 0 0 0 0 0 0 0 0 0 0 0 0 0 0 0 0 0 0 0 0
0 1 0 1 1 1 0 0 0 0 0 0 0 0 0 0 0 0 0 0 0 0 0 0 0 0 0 0 0 0 0 0 0 0 0 0 0 0 0 0 0 0 0 0 0 0 0
0 0 1 1 1 2 0 0 0 0 0 0 0 0 0 0 0 0 0 0 0 0 0 0 0 0 0 0 0 0 0 0 0 0 0 0 0 0 0 0 0 0 0 0 0 0 9
0 0 1 1 1 2 0 0 0 0 0 0 0 0 0 0 0 0 0 0 0 0 0 0 0 0 0 0 0 0 0 0 0 0 0 0 3 0 9 13 19 7 1 3 2 1 28
0 0 1 1 0 0 0 0 0 0 0 0 0 0 0 0 0 0 0 0 0 0 0 0 0 0 0 0 0 0 0 0 0 0 0 0 0 0 0 0 2 0 0 0 1 0 9
1 2 1 0 0 0 0 0 0 0 0 0 0 0 0 0 0 0 0 0 0 0 0 0 0 0 0 0 0 0 0 0 0 0 0 0 0 0 0 0 0 0 0 0 0 0 51
CIN
0 0 0 0 0 0 0 0 0 0 0 0 0 0 0 0 0 0 0 0 0 0 0 0 0 0 0 0 0 0 0 0 0 0 0 -349 0 0 0 0 0 0 0 -24 -114 -166 -162
0 0 0 0 0 0 0 0 0 0 0 0 0 0 0 0 0 0 0 0 0 0 0 0 0 0 0 0 0 0 0 0 0 0 0 -96 0 0 0 0 0 0 0 -6 -71 -151 -121
-1 0 0 0 0 0 0 0 0 0 0 0 0 0 0 0 0 0 0 0 0 0 0 0 0 0 0 0 0 0 0 0 0 0 0 0 0 0 0 0 0 0 0 -1 -91 -143 -224
-1 0 0 0 0 0 0 0 0 0 0 0 0 0 0 0 0 0 0 0 0 0 0 0 0 0 0 0 0 0 0 0 0 0 0 0 0 0 0 0 0 0 0 -3 -10 -83 0
0 0 0 0 0 0 0 0 0 0 0 0 0 0 0 0 0 0 0 0 0 0 0 0 0 0 0 0 0 0 0 0 0 0 0 0 0 0 0 0 0 0 0 -5 -6 -10 0
0 0 0 0 0 0 0 0 0 0 0 0 0 0 0 0 0 0 0 0 0 0 0 0 0 0 0 0 0 0 0 0 0 0 0 0 0 0 0 0 0 0 0 -1 -6 -5 -1
0 0 0 0 0 0 0 0 0 0 0 0 0 0 0 0 0 0 0 0 0 0 0 0 0 0 0 0 0 0 0 0 0 0 0 0 0 0 0 0 0 0 0 0 0 0 0
0 0 0 0 0 0 0 0 0 0 0 0 0 0 0 0 0 0 0 0 0 0 0 0 0 0 0 0 0 0 0 0 0 0 0 0 0 0 0 0 0 0 0 0 0 0 0
0 0 0 0 0 0 0 0 0 0 0 0 0 0 0 0 0 0 0 0 0 0 0 0 0 0 0 0 0 0 0 0 0 0 0 0 0 0 0 0 0 0 0 0 0 0 0
0 0 0 0 0 0 0 0 0 0 0 0 0 0 0 0 0 0 0 0 0 0 0 0 0 0 0 0 0 0 0 0 0 0 0 0 0 0 0 0 0 0 0 0 0 0 0
-1 0 0 0 0 0 0 0 0 0 0 0 0 0 0 0 0 0 0 0 0 0 0 0 0 0 0 0 0 0 0 0 0 0 0 0 0 0 0 0 0 0 0 0 0 0 0
0 0 0 0 0 0 0 0 0 0 0 0 0 0 0 0 0 0 0 0 0 0 0 0 0 0 0 0 0 0 0 0 0 0 0 0 0 0 0 0 0 0 0 0 0 0 0
0 0 0 0 0 0 0 0 0 0 0 0 0 0 0 0 0 0 0 0 0 0 0 0 0 0 0 0 0 0 0 0 0 0 0 0 0 0 0 0 0 0 0 0 0 0 0
0 0 0 0 0 0 0 0 0 0 0 0 0 0 0 0 0 0 0 0 0 0 0 0 0 0 0 0 0 0 0 0 0 0 0 0 0 0 0 0 0 0 0 0 0 0 0
0 0 0 0 0 0 0 0 0 0 0 0 0 0 0 0 0 0 0 0 0 0 0 0 0 0 0 0 0 0 0 0 0 0 0 0 0 0 0 0 0 0 0 0 0 0 0
0 0 0 0 0 0 0 0 0 0 0 0 0 0 0 0 0 0 0 0 0 0 0 0 0 0 0 0 0 0 0 0 0 0 0 0 0 0 0 0 0 0 0 0 0 0 0
0 0 0 0 0 0 0 0 0 0 0 0 0 0 0 0 0 0 0 0 0 0 0 0 0 0 0 0 0 0 0 0 0 0 0 0 0 0 0 0 0 0 0 0 0 0 0
0 0 0 0 0 0 0 0 0 0 0 0 0 0 0 0 0 0 0 0 0 0 0 0 0 0 0 0 0 0 0 0 0 0 0 0 0 0 0 0 0 0 0 0 0 0 0
0 0 0 0 0 0 0 0 0 0 0 0 0 0 0 0 0 0 0 0 0 0 0 0 0 0 0 0 0 0 0 0 0 0 0 0 0 0 0 0 0 0 -17 -14 0 0 0
0 0 0 0 0 0 0 0 0 0 0 0 0 -83 0 0 0 0 0 -103 0 0 0 0 0 0 0 0 0 0 0 0 0 0 0 0 0 0 0 0 0 0 0 -9 -10 -15 -19
0 0 0 0 0 0 0 0 0 0 0 0 0 -8 -4 0 0 0 0 0 0 0 0 0 0 0 0 0 0 0 0 0 0 0 0 0 0 0 0 0 0 0 0 0 -12 -27 -38
0 0 0 0 0 0 0 0 0 0 0 0 0 0 0 0 0 0 0 0 0 0 0 0 0 0 0 0 0 0 0 0 0 0 0 0 0 0 0 0 0 0 0 -60 -46 -63 -66
0 0 0 0 0 0 0 0 0 0 0 0 0 0 0 0 0 0 0 0 0 0 0 0 0 0 0 0 0 0 0 0 0 0 0 0 0 0 0 0 0 0 0 0 0 0 -56
0 0 0 0 0 0 0 0 0 0 0 0 0 0 0 0 0 0 0 0 0 0 0 0 0 0 0 0 0 0 0 0 0 0 0 0 0 0 0 0 0 0 0 0 0 0 0
0 0 0 0 0 0 0 0 0 0 0 0 0 0 0 0 0 0 0 0 0 0 0 0 0 0 0 0 0 0 0 0 0 0 0 0 0 0 0 0 0 0 0 0 0 0 0
0 0 0 0 0 0 0 0 0 0 0 0 0 0 0 0 0 0 0 0 0 0 0 0 0 0 0 0 0 0 0 0 0 0 0 0 0 0 0 0 0 0 0 0 0 0 -60
0 0 0 0 0 0 0 0 0 0 0 0 0 0 0 0 0 0 0 0 0 0 0 0 0 0 0 0 0 0 0 0 0 0 0 0 -15 0 -10 -3 -4 -39 -27 -28 -3 -19 -56
0 0 0 0 0 -1 0 0 0 0 0 0 0 0 0 0 0 0 0 0 0 0 0 0 0 0 0 0 0 0 0 0 0 0 0 0 0 0 0 0 -5 0 0 0 -4 0 -63
0 0 0 0 0 0 0 0 0 0 0 0 0 0 0 0 0 0 0 0 0 0 0 0 0 0 0 0 0 0 0 0 0 0 0 0 0 0 0 0 0 0 0 0 0 0 -80
Wind_Speed
20 20 20 20 20 20 20 20 20 20 20 20 20 20 20 20 19 19 19 18 18 18 18 18 18 17 16 19 17 17 21 21 19 17 15 11 9 12 6 7 9 27 9 24 24 26 26
21 21 21 21 21 20 21 21 21 21 21 21 21 21 20 20 20 20 20 20 19 19 19 18 18 18 18 19 16 16 18 20 18 16 16 12 11 14 8 10 12 10 8 17 22 20 20
22 21 22 21 21 21 21 21 21 21 21 21 21 21 21 21 21 21 21 21 21 20 20 20 19 18 22 22 15 15 17 18 19 18 16 15 18 16 11 10 8 8 7 11 17 18 20
22 22 22 22 22 22 22 21 21 21 21 21 21 22 21 21 22 22 22 22 22 21 21 20 19 18 23 18 20 19 16 15 19 20 19 18 15 13 11 11 11 8 7 14 15 17 16
23 23 22 22 22 22 22 22 22 22 22 22 21 22 22 22 22 22 22 22 21 20 20 20 17 15 23 16 19 19 21 15 14 15 17 17 13 11 14 10 7 5 8 12 12 13 18
23 23 23 23 23 23 23 22 22 22 22 22 22 21 21 21 21 22 22 20 18 19 16 18 21 18 23 16 9 17 20 18 13 10 11 11 9 9 13 9 6 6 14 9 18 16 19
23 23 23 23 23 23 23 23 23 22 22 22 22 21 21 21 21 20 17 15 15 15 17 7 7 11 13 12 10 13 14 11 18 8 7 12 8 8 12 12 10 17 21 23 23 15 16
22 23 23 23 23 23 23 23 23 23 23 23 22 22 22 21 21 20 17 16 16 18 20 24 23 24 19 16 10 10 22 7 8 7 10 7 8 13 12 5 15 17 25 23 20 12 26
22 22 22 23 23 24 24 24 24 24 23 23 23 22 22 22 22 19 20 20 19 19 18 22 19 22 7 4 20 13 15 12 9 6 7 2 6 11 11 6 23 28 21 15 16 5 13
21 22 22 23 23 24 24 24 24 24 24 24 23 22 22 21 17 17 20 19 19 18 17 12 6 1 15 10 13 20 13 8 4 5 4 6 3 18 29 17 23 16 22 27 29 27 24
21 21 21 22 23 24 24 25 25 25 25 25 24 23 21 19 19 17 18 17 18 16 14 7 8 4 12 9 15 10 11 7 3 4 9 5 2 28 6 5 8 27 28 30 29 29 29
20 21 21 22 23 24 24 25 26 26 26 25 24 23 22 17 20 21 19 19 18 14 15 6 9 9 7 6 12 13 10 8 6 3 19 28 28 22 13 26 22 25 19 19 21 11 18
20 21 21 22 22 23 24 25 26 27 26 26 25 24 23 22 17 19 19 18 12 15 7 8 12 9 7 7 5 7 11 8 9 12 8 8 11 12 4 10 21 19 18 21 22 16 5
20 20 21 22 22 23 24 26 26 27 26 26 26 25 24 26 25 20 20 13 12 17 15 9 9 10 8 6 8 5 9 10 4 4 15 28 30 7 3 4 11 19 21 18 25 30 34
20 21 21 22 23 24 24 25 26 26 25 24 24 21 23 25 29 22 17 14 13 20 18 11 8 9 10 6 11 6 7 5 3 3 11 18 18 21 10 9 8 18 17 17 28 31 31
21 21 21 22 23 24 25 25 25 24 23 22 19 20 22 17 6 17 18 17 18 20 18 17 14 11 15 8 6 11 14 7 6 12 2 18 24 25 24 12 13 15 14 22 22 22 25
21 22 22 22 23 24 24 25 25 23 21 18 17 20 18 4 5 18 21 20 22 26 17 17 22 22 22 15 8 7 14 11 4 12 15 20 21 24 23 10 14 14 12 13 15 16 23
22 22 23 23 23 23 24 24 24 22 20 15 18 21 7 7 17 21 25 20 18 25 14 18 21 22 21 21 19 10 14 18 12 12 15 19 18 23 23 29 25 12 8 10 14 20 19
22 23 23 24 24 24 24 24 23 21 17 16 18 21 10 13 23 25 23 27 31 21 21 17 16 20 22 22 19 18 15 13 13 14 16 20 21 26 28 17 26 24 19 20 21 24 27
22 23 23 24 24 24 24 24 23 21 18 15 18 20 16 22 27 30 29 29 26 17 23 21 21 21 20 19 20 18 17 12 11 12 12 18 20 20 21 25 29 27 30 24 24 23 25
23 23 23 24 24 24 24 24 24 22 19 14 17 20 23 24 25 26 28 29 19 19 16 21 21 19 22 19 21 19 22 19 9 9 15 16 21 19 23 30 30 32 32 29 26 26 27
22 22 23 23 23 24 24 24 24 23 18 17 21 21 22 23 23 24 31 25 23 17 12 14 17 19 17 19 18 19 21 20 17 17 11 11 18 23 23 25 30 31 30 31 33 33 32
22 22 23 23 23 23 23 23 23 22 17 17 19 21 19 22 21 22 21 18 22 23 19 13 16 17 15 18 21 21 20 20 20 20 23 22 24 26 29 32 34 30 29 30 33 33 30
21 21 22 22 22 23 23 23 22 21 18 19 20 22 21 23 23 24 21 20 16 17 19 19 20 17 17 22 24 24 22 22 24 24 23 25 25 27 33 29 23 28 30 32 32 30 31
21 22 22 21 22 22 22 22 22 22 21 18 20 20 22 26 25 24 23 22 23 22 21 23 23 22 25 24 24 24 25 27 27 26 24 21 24 23 22 23 28 31 27 30 32 33 32
22 22 22 22 22 22 22 22 22 22 22 18 18 19 21 23 18 24 25 21 19 24 24 21 19 19 19 22 22 22 22 22 21 20 16 15 17 13 18 21 28 29 33 32 32 33 31
24 24 23 23 23 23 22 22 22 22 21 19 20 19 21 24 24 22 21 23 21 23 24 23 13 14 15 18 21 22 23 20 22 24 24 24 21 21 21 23 25 24 28 30 24 27 30
26 26 25 24 24 23 23 22 22 22 21 19 21 19 19 24 30 26 24 24 24 21 21 20 19 16 19 20 20 20 20 21 25 23 22 22 23 25 24 26 26 26 26 25 25 29 29
27 27 26 26 25 25 24 23 23 22 22 21 21 22 23 24 27 28 31 30 28 26 23 20 21 21 18 18 19 20 21 20 22 21 21 18 20 22 21 22 26 27 28 29 29 29 31
Wind_Direction
294 294 292 291 293 292 292 289 290 290 288 286 283 280 277 274 270 269 265 262 258 254 250 249 250 251 240 208 197 176 165 168 158 175 173 200 249 290 227 262 137 15 124 47 67 75 84
293 292 292 291 290 292 291 289 289 288 289 286 283 281 278 275 271 269 266 261 259 253 248 246 248 245 235 222 85 103 132 158 158 147 175 198 242 273 205 261 57 107 154 59 50 69 72
292 293 291 290 289 289 290 289 288 287 287 285 283 282 279 275 273 269 266 262 259 253 247 245 244 246 233 186 262 119 117 155 172 166 184 236 285 284 250 247 226 167 152 77 71 64 73
294 291 289 289 289 289 289 288 287 286 284 283 283 281 279 277 276 272 267 264 257 249 248 247 242 258 228 242 197 208 143 141 179 196 205 235 243 226 181 208 235 224 194 60 66 72 85
292 291 289 288 288 288 288 286 286 284 282 281 280 280 279 277 276 274 269 262 252 247 243 235 271 286 241 268 204 182 190 148 141 167 198 215 214 185 220 201 223 150 109 80 76 74 66
293 291 290 287 286 286 286 284 283 282 281 279 277 276 277 276 275 276 272 254 257 262 270 256 232 272 216 171 126 158 171 172 149 123 153 155 119 145 203 187 153 219 270 112 34 38 38
294 292 289 287 286 284 284 283 281 279 279 278 276 274 273 272 272 276 279 279 289 291 278 337 334 315 0 138 21 125 131 124 186 111 116 161 121 136 194 208 225 257 274 291 297 241 24
296 293 290 289 286 284 283 282 279 277 276 277 275 273 273 270 266 262 253 262 271 277 268 196 202 203 232 296 4 215 201 80 112 112 150 132 160 186 196 163 246 248 334 271 263 242 315
299 295 293 289 287 284 282 280 278 277 275 274 272 271 272 270 267 253 244 242 253 265 278 246 167 188 214 59 217 160 143 141 137 108 143 102 181 206 221 359 336 310 343 248 243 198 236
302 298 294 292 288 286 284 282 280 278 275 271 268 268 269 270 256 258 244 243 232 268 298 325 69 164 149 101 344 186 134 108 38 358 128 10 162 233 280 337 330 353 257 284 310 315 336
308 303 298 294 292 290 287 284 281 278 274 270 266 264 262 263 246 247 256 269 267 264 308 41 34 22 90 57 13 37 118 93 31 74 7 18 167 285 225 357 360 301 305 297 306 304 293
311 307 302 299 296 293 290 287 284 279 275 270 265 263 262 261 247 229 248 253 253 298 301 8 9 17 41 102 359 23 25 23 18 36 317 251 251 250 343 313 328 318 338 333 279 1 339
313 311 308 304 301 298 294 290 287 282 276 271 265 261 258 252 251 267 262 251 290 298 18 337 346 30 74 38 75 41 18 11 350 348 8 193 211 215 344 346 335 324 341 334 326 334 330
315 313 312 309 305 302 298 295 291 285 278 272 266 263 257 245 242 258 247 271 285 295 308 4 25 41 23 61 60 79 26 12 75 81 326 291 297 267 108 95 10 331 327 328 316 308 292
316 314 312 312 311 307 304 301 297 289 282 276 271 269 262 251 232 249 260 262 286 305 321 348 33 8 7 19 358 47 16 16 41 132 357 333 330 360 42 18 42 351 331 330 309 301 305
319 316 314 312 311 311 308 306 302 295 286 280 271 269 261 260 267 257 258 264 285 299 315 316 326 348 331 355 2 353 341 10 12 345 33 333 321 319 354 9 2 0 351 324 318 319 312
320 318 316 314 313 311 312 311 308 301 291 281 271 266 264 225 249 259 258 262 278 285 312 306 303 310 313 329 341 345 341 352 1 358 345 332 323 319 327 355 351 354 358 350 344 333 312
319 318 317 315 313 312 312 312 311 306 293 277 264 261 247 249 258 262 258 263 285 286 327 307 302 305 314 317 319 347 346 356 3 360 347 350 340 321 320 309 326 313 338 338 335 325 327
316 316 315 315 315 313 312 313 311 308 297 273 263 264 265 257 258 258 264 264 270 293 295 315 308 309 306 312 324 329 345 359 356 343 336 337 331 322 319 329 328 339 337 336 327 317 306
312 313 313 313 313 314 314 313 311 306 288 271 271 260 269 259 259 262 266 269 276 295 289 300 301 307 310 312 313 323 316 349 356 345 350 338 323 309 307 313 317 317 312 319 320 318 311
307 309 311 311 312 313 314 315 312 307 286 268 267 266 279 259 257 258 265 277 278 283 295 292 303 303 309 312 312 310 314 313 354 355 340 344 330 322 302 300 303 304 303 309 309 307 308
297 301 307 309 310 312 314 316 316 312 288 265 269 277 279 271 271 256 263 278 283 282 293 299 295 298 310 305 320 315 326 336 343 338 345 346 329 326 321 311 303 305 307 302 300 300 302
295 298 304 307 309 310 312 315 319 320 294 269 285 280 279 271 278 275 274 285 276 283 300 301 312 312 320 320 317 317 319 321 324 332 326 328 323 317 309 302 296 301 298 300 303 303 308
296 300 306 307 309 310 312 314 317 319 315 275 281 276 270 261 277 283 284 288 292 297 286 303 313 304 313 323 322 313 308 312 310 311 316 314 313 311 296 304 306 307 294 296 302 308 311
300 306 306 306 309 311 311 313 314 313 310 283 283 275 266 259 276 289 289 279 279 293 296 293 297 307 307 317 315 311 308 302 301 301 303 305 306 305 305 306 306 304 308 303 303 304 305
296 301 306 307 310 310 309 311 312 312 310 283 287 287 266 262 267 283 284 299 290 287 290 294 300 300 312 310 313 307 306 308 310 314 308 295 299 292 305 301 303 310 307 305 302 300 313
291 294 299 304 308 311 310 309 309 309 307 287 273 291 269 260 270 280 285 284 293 292 287 300 298 313 326 309 304 303 303 309 305 306 308 306 312 309 303 305 313 323 320 317 304 306 314
286 290 293 298 301 306 309 309 307 307 307 295 263 286 283 268 264 274 283 283 283 289 291 305 304 314 310 307 307 309 309 309 307 310 311 308 305 303 307 306 305 329 330 317 316 316 320
285 286 288 291 297 301 303 306 306 306 307 301 274 289 289 273 265 277 272 274 280 281 290 297 299 309 316 312 316 310 309 316 318 312 317 318 324 315 312 310 314 324 322 321 323 318 318